• In Uzbekistan
  • List of Countries
  • For 7 days
  • Water Temperature
  • Satellite Maps
  • Weather Map
  • Weather Widgets
  • user-avatar
    Login

    Hourly Weather Karabalta

    Today, 18 November, Sunday

    Time Temperature Precipitation Wind Pressure Humidity
    00:00 -3°C° 0 mm 2 mps 696 mmHg 47%
    01:00 -4°C° 0 mm 2 mps 696 mmHg 48%
    02:00 -4°C° 0 mm 2 mps 696 mmHg 49%
    03:00 -4°C° 0 mm 2 mps 696 mmHg 50%
    04:00 -4°C° 0 mm 2 mps 697 mmHg 50%
    05:00 -4°C° 0 mm 2 mps 696 mmHg 50%
    06:00 -4°C° 0 mm 2 mps 697 mmHg 52%
    07:00 -4°C° 0 mm 2 mps 697 mmHg 54%
    08:00 -4°C° 0 mm 2 mps 698 mmHg 56%
    09:00 -3°C° 0 mm 2 mps 698 mmHg 60%
    10:00 -1°C° 0 mm 2 mps 698 mmHg 65%
    11:00 +2°C° 0 mm 2 mps 698 mmHg 70%
    12:00 +2°C° 0 mm 2 mps 698 mmHg 72%
    13:00 +2°C° 0 mm 2 mps 698 mmHg 74%
    14:00 +2°C° 0 mm 2 mps 698 mmHg 77%
    15:00 +1°C° 0 mm 2 mps 698 mmHg 73%
    16:00 -2°C° 0 mm 2 mps 698 mmHg 70%
    17:00 -3°C° 0 mm 2 mps 698 mmHg 66%
    18:00 -3°C° 0 mm 2 mps 698 mmHg 62%
    19:00 -4°C° 0 mm 2 mps 699 mmHg 58%
    20:00 -4°C° 0 mm 2 mps 699 mmHg 53%
    21:00 -4°C° 0 mm 2 mps 699 mmHg 52%
    22:00 -4°C° 0 mm 2 mps 699 mmHg 50%
    23:00 -4°C° 0 mm 2 mps 699 mmHg 49%

    Tomorrow, 19 November, Monday

    Time Temperature Precipitation Wind Pressure Humidity
    00:00 -4°C° 0 mm 2 mps 699 mmHg 49%
    01:00 -4°C° 0 mm 2 mps 699 mmHg 49%
    02:00 -4°C° 0 mm 2 mps 699 mmHg 49%
    03:00 -4°C° 0 mm 2 mps 699 mmHg 49%
    04:00 -3°C° 0 mm 2 mps 699 mmHg 49%
    05:00 -3°C° 0 mm 2 mps 699 mmHg 49%
    06:00 -3°C° 0 mm 2 mps 699 mmHg 49%
    07:00 -3°C° 0 mm 2 mps 700 mmHg 50%
    08:00 -2°C° 0 mm 2 mps 700 mmHg 50%
    09:00 -1°C° 0 mm 2 mps 700 mmHg 55%
    10:00 +2°C° 0 mm 2 mps 700 mmHg 60%
    11:00 +4°C° 0 mm 2 mps 699 mmHg 64%
    12:00 +4°C° 0 mm 2 mps 699 mmHg 67%
    13:00 +4°C° 0 mm 2 mps 699 mmHg 69%
    14:00 +5°C° 0 mm 2 mps 698 mmHg 72%
    15:00 +3°C° 0 mm 2 mps 698 mmHg 67%
    16:00 +2°C° 0 mm 2 mps 698 mmHg 63%
    17:00 +1°C° 0 mm 2 mps 698 mmHg 58%
    18:00 +1°C° 0 mm 2 mps 698 mmHg 56%
    19:00 0°C° 0 mm 3 mps 698 mmHg 53%
    20:00 0°C° 0 mm 3 mps 698 mmHg 51%
    21:00 0°C° 0 mm 3 mps 698 mmHg 51%
    22:00 +1°C° 0 mm 3 mps 697 mmHg 51%
    23:00 +1°C° 0 mm 3 mps 697 mmHg 50%

    Day after tomorrow, 20 November, Tuesday

    Time Temperature Precipitation Wind Pressure Humidity
    00:00 +2°C° 0 mm 2 mps 697 mmHg 51%
    01:00 +2°C° 0 mm 2 mps 696 mmHg 51%
    02:00 +3°C° 0 mm 2 mps 696 mmHg 52%
    03:00 +3°C° 0 mm 2 mps 696 mmHg 53%
    04:00 +3°C° 0 mm 2 mps 696 mmHg 54%
    05:00 +3°C° 0 mm 2 mps 696 mmHg 56%
    06:00 +3°C° 0.1 mm 2 mps 696 mmHg 58%
    07:00 +3°C° 0.1 mm 2 mps 696 mmHg 61%
    08:00 +2°C° 0.1 mm 3 mps 696 mmHg 64%
    09:00 +3°C° 0.1 mm 3 mps 696 mmHg 67%
    10:00 +3°C° 0.1 mm 3 mps 696 mmHg 71%
    11:00 +3°C° 0.1 mm 3 mps 697 mmHg 74%
    12:00 +3°C° 0.2 mm 3 mps 696 mmHg 78%
    13:00 +4°C° 0.2 mm 2 mps 696 mmHg 81%
    14:00 +4°C° 0.2 mm 2 mps 696 mmHg 85%
    15:00 +3°C° 0.1 mm 2 mps 697 mmHg 84%
    16:00 +2°C° 0.1 mm 2 mps 697 mmHg 83%
    17:00 +2°C° 0.1 mm 2 mps 697 mmHg 83%
    18:00 +2°C° 0.1 mm 2 mps 697 mmHg 82%
    19:00 +2°C° 0.1 mm 2 mps 698 mmHg 82%
    20:00 +2°C° 0.1 mm 2 mps 698 mmHg 81%
    21:00 +2°C° 0.1 mm 2 mps 698 mmHg 83%
    22:00 +2°C° 0.1 mm 2 mps 698 mmHg 85%
    23:00 +1°C° 0.1 mm 2 mps 698 mmHg 87%

    21 November, Wednesday

    Time Temperature Precipitation Wind Pressure Humidity
    00:00 +1°C° 0.1 mm 2 mps 699 mmHg 88%
    01:00 +1°C° 0.1 mm 2 mps 699 mmHg 88%
    02:00 +1°C° 0.1 mm 2 mps 699 mmHg 88%
    03:00 0°C° 0 mm 3 mps 699 mmHg 87%
    04:00 -1°C° 0 mm 3 mps 699 mmHg 87%
    05:00 -1°C° 0 mm 3 mps 700 mmHg 86%
    06:00 -1°C° 0 mm 3 mps 700 mmHg 85%
    07:00 -1°C° 0 mm 3 mps 700 mmHg 84%
    08:00 -1°C° 0 mm 3 mps 700 mmHg 83%
    09:00 -1°C° 0 mm 4 mps 700 mmHg 83%
    10:00 +1°C° 0 mm 4 mps 699 mmHg 83%
    11:00 +3°C° 0 mm 4 mps 699 mmHg 83%
    12:00 +3°C° 0 mm 4 mps 698 mmHg 82%
    13:00 +4°C° 0 mm 4 mps 697 mmHg 81%
    14:00 +4°C° 0 mm 4 mps 696 mmHg 80%
    15:00 +3°C° 0 mm 4 mps 696 mmHg 78%
    16:00 +1°C° 0 mm 4 mps 695 mmHg 76%
    17:00 0°C° 0 mm 4 mps 695 mmHg 73%
    18:00 0°C° 0 mm 4 mps 694 mmHg 71%
    19:00 +1°C° 0 mm 3 mps 694 mmHg 69%
    20:00 +1°C° 0 mm 3 mps 693 mmHg 66%
    21:00 +2°C° 0 mm 3 mps 693 mmHg 64%
    22:00 +2°C° 0 mm 3 mps 692 mmHg 62%
    23:00 +2°C° 0 mm 3 mps 691 mmHg 60%

    22 November, Thursday

    Time Temperature Precipitation Wind Pressure Humidity
    00:00 +2°C° 0 mm 3 mps 691 mmHg 58%
    01:00 +2°C° 0 mm 3 mps 690 mmHg 57%
    02:00 +4°C° 0 mm 2 mps 690 mmHg 56%
    03:00 +4°C° 0 mm 2 mps 690 mmHg 56%
    04:00 +4°C° 0 mm 2 mps 690 mmHg 55%
    05:00 +4°C° 0 mm 2 mps 690 mmHg 55%
    06:00 +4°C° 0 mm 2 mps 690 mmHg 56%
    07:00 +5°C° 0 mm 2 mps 690 mmHg 57%
    08:00 +5°C° 0 mm 2 mps 690 mmHg 58%
    09:00 +4°C° 0 mm 3 mps 690 mmHg 62%
    10:00 +5°C° 0 mm 3 mps 691 mmHg 66%
    11:00 +5°C° 0 mm 3 mps 691 mmHg 70%
    12:00 +5°C° 0.1 mm 3 mps 691 mmHg 73%
    13:00 +5°C° 0.1 mm 3 mps 691 mmHg 77%
    14:00 +5°C° 0.1 mm 3 mps 691 mmHg 81%
    15:00 +4°C° 0.1 mm 3 mps 692 mmHg 82%
    16:00 +3°C° 0.1 mm 3 mps 692 mmHg 82%
    17:00 +3°C° 0.1 mm 3 mps 693 mmHg 83%
    18:00 +3°C° 0.1 mm 4 mps 693 mmHg 82%
    19:00 +3°C° 0.1 mm 4 mps 694 mmHg 80%
    20:00 +3°C° 0.1 mm 4 mps 695 mmHg 79%
    21:00 +1°C° 0 mm 4 mps 695 mmHg 79%
    22:00 +1°C° 0 mm 4 mps 695 mmHg 79%
    23:00 +1°C° 0 mm 4 mps 695 mmHg 80%

    23 November, Friday

    Time Temperature Precipitation Wind Pressure Humidity
    00:00 0°C° 0 mm 4 mps 695 mmHg 80%
    01:00 0°C° 0 mm 4 mps 696 mmHg 80%
    02:00 0°C° 0 mm 4 mps 696 mmHg 80%
    03:00 0°C° 0 mm 4 mps 696 mmHg 81%
    04:00 0°C° 0 mm 4 mps 696 mmHg 82%
    05:00 0°C° 0 mm 4 mps 696 mmHg 82%
    06:00 0°C° 0 mm 4 mps 696 mmHg 82%
    07:00 +1°C° 0 mm 4 mps 696 mmHg 83%
    08:00 +1°C° 0 mm 4 mps 696 mmHg 83%
    09:00 +3°C° 0 mm 4 mps 696 mmHg 81%
    10:00 +4°C° 0 mm 4 mps 695 mmHg 80%
    11:00 +6°C° 0 mm 5 mps 695 mmHg 78%
    12:00 +6°C° 0.1 mm 5 mps 695 mmHg 78%
    13:00 +6°C° 0.1 mm 5 mps 694 mmHg 77%
    14:00 +7°C° 0.1 mm 5 mps 694 mmHg 77%
    15:00 +6°C° 0.2 mm 5 mps 693 mmHg 78%
    16:00 +5°C° 0.2 mm 4 mps 693 mmHg 79%
    17:00 +5°C° 0.2 mm 4 mps 693 mmHg 80%
    18:00 +5°C° 0.1 mm 4 mps 692 mmHg 78%
    19:00 +5°C° 0.1 mm 5 mps 692 mmHg 77%
    20:00 +5°C° 0.1 mm 5 mps 692 mmHg 76%
    21:00 +5°C° 0.2 mm 5 mps 692 mmHg 79%
    22:00 +5°C° 0.2 mm 5 mps 692 mmHg 82%
    23:00 +3°C° 0.2 mm 5 mps 692 mmHg 84%
    Show more